Home > Weather > Bakersfield > Past weeks

Flag for USA Past Weather in Bakersfield, California, USA — Yesterday and Last 2 Weeks

Now
72 °F

Sunny.


Feels Like: 77 °F
Forecast: 67 / 91 °F
Wind: No wind

Location: Meadows Field

Current Time: May 28, 2016 at 9:11:39 AM

Latest Report: May 28, 2016 at 7:54 AM


Visibility: 10 mi

Pressure: 29.80 "Hg

Humidity: 40%

Dew Point: 46 °F

Location of BakersfieldLocation

Past Weather in Bakersfield — Graph

°F

Bakersfield Temperature Yesterday

Maximum temperature yesterday: 89 °F (at 4:54 PM)
Minimum temperature yesterday: 65 °F (at 3:54 AM)
Average temperature yesterday: 77 °F

High & Low Weather Summary for the Past Weeks

 TemperatureHumidityPressure
High95 °F (May 18, 4:54 PM)75% (May 24, 5:54 AM)30.10 "Hg (May 24, 5:54 AM)
Low51 °F (May 21, 4:54 AM)6% (May 19, 5:54 PM)29.64 "Hg (May 19, 4:54 PM)
Average71 °F40%29.89 "Hg
* Reported May 13 6:54 AM — May 28 6:54 AM, Bakersfield, Weather by CustomWeather, © 2016

Note: Actual official high and low records may vary slightly from our data, if they occured in-between our weather recording intervals... More about our weather records

Advertising

Bakersfield Weather History for the Previous 24 Hours

Scroll right to see more
 ConditionsComfort  
Time TempWeatherWind HumidityBarometerVisibility
6:54 AM
Sat, May 28
69 °FSunny.5 mph45%29.79 "Hg10 mi
5:54 AM68 °FClear.3 mph49%29.78 "Hg10 mi
4:54 AM68 °FClear.3 mph49%29.77 "Hg10 mi
3:54 AM67 °FClear.3 mph49%29.76 "Hg10 mi
2:54 AM70 °FClear.No wind46%29.77 "Hg10 mi
1:54 AM68 °FClear.No wind49%29.78 "Hg10 mi
12:54 AM72 °FClear.5 mph38%29.78 "Hg10 mi
11:54 PM
Fri, May 27
73 °FClear.5 mph37%29.78 "Hg10 mi
10:54 PM78 °FClear.8 mph31%29.78 "Hg10 mi
9:54 PM78 °FClear.6 mph31%29.78 "Hg10 mi
8:54 PM79 °FSunny.7 mph31%29.77 "Hg10 mi
7:54 PM83 °FSunny.7 mph26%29.76 "Hg10 mi
6:54 PM87 °FSunny.12 mph21%29.74 "Hg10 mi
5:54 PM88 °FSunny.13 mph21%29.74 "Hg10 mi
4:54 PM89 °FSunny.13 mph20%29.75 "Hg10 mi
3:54 PM88 °FSunny.14 mph22%29.77 "Hg10 mi
2:54 PM88 °FSunny.14 mph24%29.79 "Hg10 mi
1:54 PM87 °FSunny.14 mph25%29.81 "Hg10 mi
12:54 PM84 °FSunny.12 mph29%29.85 "Hg10 mi
11:54 AM81 °FSunny.9 mph30%29.87 "Hg10 mi
10:54 AM79 °FSunny.N/A34%29.89 "Hg10 mi
9:54 AM77 °FSunny.5 mph35%29.90 "Hg10 mi
Weather by CustomWeather, © 2016

See weather overviewHow to use our weather pages